This is the latest recevied weather packets stored in our database for station/object IZ5MMH-4. If no packets are shown the sender has not sent any weather packets the latest 10 day(s).
| Time | Temp. | Humidity | Pressure | Rain* | Wind** | Luminosity | Snow |
|---|---|---|---|---|---|---|---|
| 1787819663 | 30.56° C | 56% | 1016.9 hPa | - | - | - | - |
| 1787819063 | 30.56° C | 59% | 1016.8 hPa | - | - | - | - |
| 1787818464 | 30° C | 63% | 1016.6 hPa | - | - | - | - |
| 1787817863 | 30° C | 63% | 1016.6 hPa | - | - | - | - |
| 1787817263 | 30° C | 61% | 1016.7 hPa | - | - | - | - |
| 1787816663 | 30° C | 59% | 1016.8 hPa | - | - | - | - |
| 1787816064 | 29.44° C | 55% | 1016.8 hPa | - | - | - | - |
| 1787815464 | 29.44° C | 54% | 1016.8 hPa | - | - | - | - |
| 1787814863 | 29.44° C | 56% | 1017.1 hPa | - | - | - | - |
| 1787814263 | 28.89° C | 58% | 1017.5 hPa | - | - | - | - |
| 1787813663 | 28.89° C | 58% | 1017.3 hPa | - | - | - | - |
| 1787813063 | 28.89° C | 60% | 1017.4 hPa | - | - | - | - |
| 1787812464 | 28.89° C | 63% | 1017.1 hPa | - | - | - | - |
| 1787811863 | 28.33° C | 64% | 1017.2 hPa | - | - | - | - |
| 1787811263 | 28.33° C | 64% | 1017.1 hPa | - | - | - | - |
| 1787810663 | 28.33° C | 64% | 1017.4 hPa | - | - | - | - |
| 1787810064 | 28.33° C | 65% | 1017.5 hPa | - | - | - | - |
| 1787809463 | 28.33° C | 65% | 1017.6 hPa | - | - | - | - |
| 1787808863 | 28.33° C | 66% | 1017.3 hPa | - | - | - | - |
| 1787808264 | 28.33° C | 66% | 1017 hPa | - | - | - | - |
| 1787807664 | 28.33° C | 67% | 1016.7 hPa | - | - | - | - |
| 1787807063 | 28.33° C | 68% | 1016.7 hPa | - | - | - | - |
| 1787806463 | 28.33° C | 69% | 1016.7 hPa | - | - | - | - |
| 1787805863 | 28.33° C | 70% | 1016.8 hPa | - | - | - | - |
| 1787805263 | 28.33° C | 70% | 1016.9 hPa | - | - | - | - |
* Rain since midnight (hover to see other rain measurements)
** Current wind speed in m/s (hover to see current wind gust speed)